�������l�o���
Date,Time,MP-1(��Sv/h),MP-2(��Sv/h),MP-3(��Sv/h),MP-4(��Sv/h),MP-5(��Sv/h),MP-6(��Sv/h),MP-7(��Sv/h),MP-8(��Sv/h),����,����(m/s),���J
2022/07/16,00:00,0.565,0.789,0.511,0.950,0.662,0.334,0.567,0.539,��쐼,0.9,�L
2022/07/16,00:10,0.566,0.789,0.513,0.949,0.662,0.334,0.567,0.539,��,0.8,�L
2022/07/16,00:20,0.566,0.789,0.513,0.952,0.660,0.334,0.566,0.540,���쐼,0.6,�L
2022/07/16,00:30,0.563,0.784,0.512,0.948,0.657,0.331,0.564,0.539,�k��,0.9,�L
2022/07/16,00:40,0.560,0.783,0.511,0.943,0.655,0.333,0.566,0.537,��쐼,1.2,�L
2022/07/16,00:50,0.562,0.782,0.512,0.942,0.655,0.333,0.565,0.537,���k��,1.2,�L
2022/07/16,01:00,0.563,0.782,0.513,0.943,0.656,0.334,0.564,0.538,�k��,6.3,�L
2022/07/16,01:10,0.560,0.779,0.512,0.939,0.653,0.335,0.565,0.537,�k,1.1,�L
2022/07/16,01:20,0.560,0.780,0.512,0.935,0.650,0.334,0.561,0.537,�쓌,4.1,�L
2022/07/16,01:30,0.556,0.774,0.509,0.930,0.646,0.333,0.562,0.535,���쐼,2.9,�L
2022/07/16,01:40,0.560,0.779,0.512,0.939,0.649,0.335,0.564,0.537,���k��,0.9,�L
2022/07/16,01:50,0.563,0.783,0.512,0.942,0.654,0.335,0.566,0.539,�k�k��,4.4,�L
2022/07/16,02:00,0.564,0.784,0.511,0.944,0.653,0.335,0.565,0.540,�k,6.0,�L
2022/07/16,02:10,0.566,0.787,0.512,0.943,0.651,0.335,0.566,0.538,�k,8.3,��
2022/07/16,02:20,0.566,0.787,0.511,0.946,0.653,0.335,0.566,0.539,�k�k��,8.1,��
2022/07/16,02:30,0.566,0.786,0.512,0.947,0.655,0.333,0.568,0.538,�k,8.3,��
2022/07/16,02:40,0.565,0.788,0.511,0.949,0.654,0.334,0.568,0.539,�k�k��,7.1,��
2022/07/16,02:50,0.565,0.790,0.512,0.950,0.655,0.335,0.568,0.540,�k�k��,6.6,��
2022/07/16,03:00,0.566,0.788,0.511,0.951,0.656,0.333,0.568,0.540,�k�k��,7.1,��
2022/07/16,03:10,0.566,0.790,0.512,0.955,0.655,0.333,0.567,0.541,�k��,5.8,��
2022/07/16,03:20,0.566,0.790,0.511,0.953,0.656,0.333,0.570,0.542,�k��,7.1,��
2022/07/16,03:30,0.566,0.793,0.511,0.954,0.658,0.333,0.569,0.541,�k�k��,9.0,�L
2022/07/16,03:40,0.565,0.790,0.511,0.953,0.657,0.333,0.569,0.542,�k�k��,8.2,�L
2022/07/16,03:50,0.567,0.790,0.510,0.956,0.657,0.333,0.570,0.541,�k�k��,6.5,�L
2022/07/16,04:00,0.566,0.791,0.510,0.957,0.657,0.332,0.570,0.541,�k�k��,8.7,��
2022/07/16,04:10,0.564,0.788,0.511,0.961,0.656,0.334,0.568,0.542,�k�k��,9.1,��
2022/07/16,04:20,0.565,0.790,0.511,0.957,0.657,0.332,0.569,0.541,�k�k��,6.8,��
2022/07/16,04:30,0.566,0.791,0.513,0.960,0.658,0.333,0.571,0.542,�k�k��,5.7,��
2022/07/16,04:40,0.566,0.791,0.511,0.961,0.659,0.333,0.571,0.541,�k��,4.3,��
2022/07/16,04:50,0.565,0.794,0.514,0.960,0.661,0.333,0.570,0.542,�k��,6.0,��
2022/07/16,05:00,0.565,0.791,0.514,0.962,0.661,0.334,0.569,0.543,�k��,6.3,��
2022/07/16,05:10,0.567,0.794,0.513,0.961,0.659,0.334,0.570,0.542,�k��,6.1,��
2022/07/16,05:20,0.566,0.792,0.513,0.964,0.661,0.334,0.570,0.542,�k��,6.4,��
2022/07/16,05:30,0.567,0.795,0.515,0.960,0.661,0.334,0.570,0.543,�k��,7.4,��
2022/07/16,05:40,0.566,0.794,0.514,0.964,0.661,0.333,0.572,0.543,�k��,7.3,��
2022/07/16,05:50,0.569,0.795,0.514,0.964,0.661,0.333,0.570,0.545,���k��,5.6,��
2022/07/16,06:00,0.568,0.796,0.514,0.966,0.662,0.332,0.572,0.544,���k��,4.8,��
2022/07/16,06:10,0.567,0.796,0.514,0.963,0.663,0.334,0.571,0.542,��,3.6,��
2022/07/16,06:20,0.569,0.797,0.517,0.965,0.662,0.335,0.572,0.542,��,2.2,��
2022/07/16,06:30,0.568,0.795,0.515,0.966,0.664,0.334,0.570,0.543,��,2.0,��
2022/07/16,06:40,0.567,0.796,0.516,0.966,0.664,0.334,0.573,0.546,��,2.3,��
2022/07/16,06:50,0.569,0.796,0.515,0.965,0.663,0.333,0.572,0.544,���k��,3.4,��
2022/07/16,07:00,0.569,0.795,0.513,0.965,0.663,0.335,0.573,0.546,���k��,2.3,��
2022/07/16,07:10,0.568,0.795,0.516,0.967,0.663,0.333,0.573,0.544,���k��,3.7,��
2022/07/16,07:20,0.569,0.795,0.514,0.967,0.663,0.333,0.573,0.543,�k��,4.2,��
2022/07/16,07:30,0.570,0.796,0.517,0.968,0.664,0.332,0.572,0.544,�k�k��,2.2,��
2022/07/16,07:40,0.571,0.795,0.516,0.967,0.665,0.334,0.572,0.544,���k��,1.4,��
2022/07/16,07:50,0.569,0.796,0.516,0.965,0.665,0.333,0.573,0.546,���k��,2.3,��
2022/07/16,08:00,0.571,0.796,0.515,0.967,0.665,0.333,0.573,0.544,���k��,1.9,��
2022/07/16,08:10,0.571,0.796,0.514,0.966,0.664,0.334,0.573,0.544,��,1.1,��
2022/07/16,08:20,0.571,0.797,0.518,0.968,0.665,0.334,0.573,0.544,���쐼,1.1,��
2022/07/16,08:30,0.570,0.797,0.516,0.968,0.666,0.334,0.573,0.544,��쐼,1.5,��
2022/07/16,08:40,0.571,0.797,0.517,0.969,0.667,0.333,0.574,0.545,��,2.6,��
2022/07/16,08:50,0.569,0.798,0.517,0.968,0.667,0.335,0.574,0.544,��쓌,3.0,��
2022/07/16,09:00,0.570,0.800,0.516,0.966,0.666,0.334,0.574,0.546,��쓌,3.1,��
2022/07/16,09:10,0.570,0.800,0.517,0.966,0.668,0.334,0.573,0.545,��쓌,3.4,��
2022/07/16,09:20,0.571,0.801,0.517,0.968,0.667,0.334,0.572,0.546,��쓌,3.6,��
2022/07/16,09:30,0.571,0.800,0.516,0.967,0.666,0.334,0.574,0.546,��쓌,4.9,��
2022/07/16,09:40,0.572,0.800,0.517,0.970,0.665,0.336,0.574,0.546,��쓌,5.0,��
2022/07/16,09:50,0.572,0.804,0.516,0.969,0.667,0.334,0.575,0.545,��,6.1,��
2022/07/16,10:00,0.570,0.800,0.518,0.969,0.668,0.336,0.575,0.545,��,5.1,��
2022/07/16,10:10,0.572,0.801,0.518,0.971,0.668,0.335,0.575,0.546,��,4.1,��
2022/07/16,10:20,0.572,0.803,0.518,0.971,0.669,0.334,0.574,0.545,��,3.3,��
2022/07/16,10:30,0.573,0.802,0.518,0.969,0.669,0.336,0.575,0.547,��,3.6,��
2022/07/16,10:40,0.572,0.804,0.517,0.970,0.669,0.336,0.575,0.545,��,3.6,��
2022/07/16,10:50,0.574,0.803,0.517,0.969,0.670,0.335,0.575,0.545,��,3.7,��
2022/07/16,11:00,0.574,0.801,0.519,0.970,0.671,0.336,0.576,0.546,��,4.2,��
2022/07/16,11:10,0.574,0.804,0.518,0.971,0.670,0.335,0.576,0.546,��,4.0,��
2022/07/16,11:20,0.574,0.806,0.518,0.969,0.673,0.336,0.575,0.546,��,4.4,��
2022/07/16,11:30,0.574,0.804,0.519,0.970,0.672,0.335,0.575,0.545,��,4.5,��
2022/07/16,11:40,0.574,0.806,0.520,0.970,0.674,0.337,0.576,0.547,��쓌,3.7,��
2022/07/16,11:50,0.574,0.807,0.519,0.969,0.672,0.336,0.576,0.546,��쓌,4.3,�L
2022/07/16,12:00,0.573,0.807,0.519,0.970,0.673,0.338,0.575,0.545,��쓌,4.9,��
2022/07/16,12:10,0.574,0.807,0.518,0.969,0.674,0.336,0.575,0.546,��쓌,4.5,��
2022/07/16,12:20,0.573,0.808,0.519,0.968,0.674,0.336,0.576,0.548,��쓌,4.9,��
2022/07/16,12:30,0.576,0.808,0.521,0.972,0.674,0.335,0.579,0.547,��쓌,4.5,��
2022/07/16,12:40,0.575,0.808,0.521,0.972,0.673,0.335,0.576,0.547,��쓌,5.2,��
2022/07/16,12:50,0.574,0.808,0.520,0.971,0.675,0.335,0.579,0.548,��,4.4,��
2022/07/16,13:00,0.576,0.808,0.520,0.971,0.675,0.335,0.577,0.547,��,4.3,��
2022/07/16,13:10,0.574,0.807,0.521,0.972,0.674,0.336,0.577,0.546,��,4.3,��
2022/07/16,13:20,0.577,0.808,0.520,0.971,0.674,0.336,0.579,0.547,��,4.6,��
2022/07/16,13:30,0.574,0.807,0.522,0.973,0.676,0.336,0.578,0.547,��,3.8,��
2022/07/16,13:40,0.576,0.808,0.522,0.971,0.676,0.337,0.578,0.546,��쓌,5.0,��
2022/07/16,13:50,0.577,0.808,0.522,0.972,0.678,0.336,0.579,0.547,��쓌,5.5,��
2022/07/16,14:00,0.576,0.808,0.522,0.973,0.676,0.335,0.578,0.547,��쓌,6.0,��
2022/07/16,14:10,0.575,0.810,0.521,0.973,0.677,0.336,0.579,0.548,��,5.7,��
2022/07/16,14:20,0.577,0.809,0.522,0.975,0.676,0.335,0.578,0.548,��,5.6,��
2022/07/16,14:30,0.576,0.809,0.521,0.974,0.678,0.337,0.578,0.547,��,6.0,��
2022/07/16,14:40,0.577,0.811,0.520,0.972,0.678,0.336,0.577,0.547,��,5.0,��
2022/07/16,14:50,0.575,0.808,0.521,0.970,0.680,0.335,0.579,0.547,��쓌,5.4,��
2022/07/16,15:00,0.576,0.809,0.522,0.973,0.679,0.336,0.579,0.548,��,4.8,��
2022/07/16,15:10,0.577,0.811,0.522,0.973,0.679,0.337,0.578,0.547,��쓌,4.7,��
2022/07/16,15:20,0.577,0.812,0.523,0.972,0.679,0.336,0.578,0.548,��,5.7,��
2022/07/16,15:30,0.576,0.811,0.522,0.975,0.679,0.336,0.579,0.547,��,5.3,��
2022/07/16,15:40,0.576,0.809,0.521,0.975,0.679,0.337,0.579,0.547,��,3.3,��
2022/07/16,15:50,0.576,0.810,0.524,0.976,0.678,0.337,0.579,0.547,��,3.7,��
2022/07/16,16:00,0.578,0.811,0.522,0.976,0.679,0.336,0.578,0.547,��,4.9,��
2022/07/16,16:10,0.577,0.812,0.523,0.974,0.680,0.336,0.579,0.547,��쓌,4.1,��
2022/07/16,16:20,0.578,0.810,0.524,0.977,0.680,0.336,0.579,0.549,��쓌,5.9,��
2022/07/16,16:30,0.577,0.812,0.524,0.975,0.682,0.337,0.579,0.547,��,5.3,��
2022/07/16,16:40,0.576,0.810,0.523,0.978,0.681,0.337,0.580,0.547,��,5.7,��
2022/07/16,16:50,0.576,0.812,0.525,0.975,0.682,0.337,0.580,0.547,��,5.3,��
2022/07/16,17:00,0.575,0.811,0.524,0.976,0.682,0.337,0.581,0.549,��,6.1,��
2022/07/16,17:10,0.578,0.813,0.526,0.978,0.681,0.336,0.580,0.547,��쓌,6.1,��
2022/07/16,17:20,0.576,0.813,0.525,0.977,0.683,0.337,0.580,0.548,��,7.1,��
2022/07/16,17:30,0.576,0.813,0.524,0.978,0.684,0.337,0.579,0.548,��쓌,5.0,��
2022/07/16,17:40,0.578,0.813,0.523,0.978,0.683,0.337,0.580,0.548,��,5.8,��
2022/07/16,17:50,0.578,0.813,0.524,0.977,0.681,0.336,0.580,0.548,��,6.2,��
2022/07/16,18:00,0.576,0.814,0.524,0.979,0.683,0.337,0.580,0.547,��,7.3,��
2022/07/16,18:10,0.576,0.814,0.525,0.978,0.681,0.336,0.579,0.549,��,6.0,��
2022/07/16,18:20,0.576,0.813,0.524,0.979,0.682,0.337,0.580,0.548,��,4.4,��
2022/07/16,18:30,0.575,0.815,0.525,0.977,0.680,0.337,0.581,0.547,��,4.4,��
2022/07/16,18:40,0.578,0.813,0.524,0.979,0.683,0.336,0.580,0.548,��,5.0,��
2022/07/16,18:50,0.576,0.815,0.524,0.978,0.685,0.336,0.582,0.549,��,3.5,��
2022/07/16,19:00,0.578,0.814,0.524,0.979,0.683,0.336,0.580,0.549,��,4.5,��
2022/07/16,19:10,0.578,0.814,0.524,0.978,0.683,0.337,0.580,0.549,��,5.9,��
2022/07/16,19:20,0.580,0.814,0.524,0.979,0.684,0.337,0.581,0.550,��쐼,3.7,��
2022/07/16,19:30,0.579,0.815,0.524,0.979,0.683,0.337,0.582,0.550,��쐼,4.3,��
2022/07/16,19:40,0.578,0.816,0.526,0.980,0.684,0.337,0.581,0.551,��쐼,4.7,��
2022/07/16,19:50,0.576,0.815,0.524,0.979,0.684,0.337,0.580,0.549,��쐼,4.6,��
2022/07/16,20:00,0.576,0.814,0.525,0.980,0.685,0.336,0.581,0.549,��,5.2,��
2022/07/16,20:10,0.577,0.816,0.525,0.980,0.684,0.336,0.582,0.551,��,4.9,��
2022/07/16,20:20,0.576,0.815,0.526,0.979,0.683,0.337,0.580,0.550,��,4.3,��
2022/07/16,20:30,0.577,0.815,0.524,0.977,0.685,0.337,0.582,0.550,��,3.8,��
2022/07/16,20:40,0.576,0.817,0.526,0.979,0.684,0.338,0.581,0.550,��,4.9,��
2022/07/16,20:50,0.579,0.815,0.525,0.978,0.684,0.337,0.581,0.551,��,4.9,��
2022/07/16,21:00,0.578,0.816,0.524,0.978,0.685,0.337,0.580,0.549,��,6.1,��
2022/07/16,21:10,0.577,0.815,0.526,0.979,0.686,0.337,0.581,0.550,��,7.1,��
2022/07/16,21:20,0.580,0.817,0.526,0.980,0.688,0.337,0.583,0.550,��,6.8,��
2022/07/16,21:30,0.579,0.815,0.525,0.979,0.686,0.337,0.581,0.550,��,5.3,��
2022/07/16,21:40,0.580,0.816,0.524,0.978,0.686,0.337,0.581,0.550,��,6.9,��
2022/07/16,21:50,0.578,0.815,0.526,0.979,0.684,0.338,0.582,0.550,��,6.4,��
2022/07/16,22:00,0.578,0.816,0.523,0.979,0.685,0.337,0.581,0.549,��,6.6,��
2022/07/16,22:10,0.579,0.817,0.525,0.979,0.685,0.338,0.582,0.550,��,7.4,��
2022/07/16,22:20,0.578,0.814,0.524,0.982,0.684,0.338,0.581,0.550,��,6.5,��
2022/07/16,22:30,0.576,0.815,0.524,0.980,0.683,0.337,0.582,0.549,��,6.6,��
2022/07/16,22:40,0.578,0.815,0.524,0.980,0.685,0.337,0.583,0.551,��,6.1,��
2022/07/16,22:50,0.578,0.813,0.525,0.980,0.686,0.337,0.582,0.549,��,6.6,��
2022/07/16,23:00,0.578,0.815,0.525,0.980,0.684,0.337,0.580,0.551,��,7.1,��
2022/07/16,23:10,0.578,0.815,0.525,0.978,0.686,0.337,0.581,0.549,��,7.1,��
2022/07/16,23:20,0.578,0.817,0.524,0.980,0.685,0.337,0.581,0.550,��,6.3,��
2022/07/16,23:30,0.578,0.815,0.524,0.981,0.684,0.337,0.581,0.549,��,4.8,��
2022/07/16,23:40,0.577,0.815,0.526,0.979,0.684,0.338,0.581,0.549,��,4.7,��
2022/07/16,23:50,0.579,0.816,0.526,0.979,0.684,0.337,0.581,0.551,��,4.9,��
